Wind_Speed
16 15 15 14 13 12 11 10 9 7 7 7 8 8 7 7 7 7 7 6 7 6 6 7 8 8 8 9 9 10 10 11 11 12 12 13 13 14 14 14 14 14 14 13 13 12 12 11 11
17 16 16 15 15 14 12 11 10 9 9 9 9 10 10 9 8 8 8 8 8 8 8 8 9 9 9 10 11 11 11 12 12 12 12 13 13 14 14 14 14 14 14 13 13 13 13 12 12
18 17 17 17 16 15 14 13 12 12 11 11 12 12 12 10 9 9 9 10 10 10 10 10 10 11 11 11 12 12 13 13 13 13 13 13 14 14 15 15 15 14 14 14 14 14 14 13 13
19 18 18 17 17 16 15 15 14 14 14 14 13 13 11 10 9 9 10 11 11 12 12 12 12 12 12 13 13 13 14 14 14 14 14 15 15 15 16 16 15 15 15 15 15 15 15 15 14
19 19 18 18 18 17 16 15 15 15 15 15 14 14 14 12 11 11 12 12 12 12 13 13 13 13 13 14 14 15 15 15 15 15 16 16 16 16 17 17 16 16 16 16 16 16 16 16 16
19 18 18 18 19 18 18 17 17 16 16 16 16 16 16 14 13 12 13 13 13 12 13 14 14 14 15 15 16 16 15 15 16 16 16 16 16 17 17 17 17 16 16 16 17 17 17 17 17
18 18 18 19 20 19 18 17 18 17 18 18 17 17 16 15 14 13 13 13 13 13 14 14 14 15 16 16 17 16 16 16 17 17 17 17 18 18 18 18 17 17 17 17 18 18 18 19 18
18 18 19 20 19 17 17 17 18 18 19 19 19 19 18 16 15 14 13 13 14 15 15 16 16 16 17 17 17 17 17 18 18 18 18 18 19 19 19 18 19 18 18 18 18 18 19 20 20
18 19 19 20 19 17 17 17 17 18 21 20 21 19 18 16 14 12 13 14 15 16 16 17 17 17 18 18 18 18 17 18 19 19 19 19 20 20 20 19 20 19 19 19 20 20 20 20 20
19 19 18 18 18 17 17 17 18 20 21 21 19 19 18 15 14 14 14 15 15 16 17 18 18 19 19 19 19 19 19 19 20 19 20 21 21 20 20 20 19 19 20 20 20 21 21 21 21
20 18 17 18 17 18 19 19 19 21 21 18 18 18 19 16 15 15 16 16 17 17 18 19 19 19 20 20 19 19 20 21 21 21 22 22 22 21 21 20 20 20 21 21 21 21 21 21 21
20 18 18 18 19 20 20 20 21 22 23 23 22 20 19 16 16 17 17 18 18 19 19 19 20 21 20 21 20 21 21 22 23 23 23 22 22 22 22 22 22 21 21 21 22 22 22 22 21
20 18 19 19 19 19 20 21 22 23 23 25 22 19 19 18 18 19 19 19 19 19 20 20 21 22 22 21 21 22 22 22 22 22 22 22 23 23 23 23 23 23 23 23 22 23 23 23 23
18 18 18 17 18 19 20 21 21 21 22 23 23 22 21 19 20 20 20 20 19 20 20 21 22 22 22 22 22 21 21 22 22 22 22 22 23 24 24 24 25 24 24 23 23 23 23 23 23
17 16 15 15 15 17 19 19 20 20 22 22 21 21 22 22 21 20 21 21 20 21 21 22 22 22 22 22 23 22 21 21 22 22 23 23 24 24 24 24 25 25 24 24 24 24 24 24 24
15 15 14 14 15 15 16 18 19 19 18 19 20 20 21 20 19 19 20 20 21 22 22 21 21 23 23 23 23 24 23 22 22 23 24 25 26 26 26 25 25 25 25 25 25 26 26 26 26
14 14 13 13 14 14 15 16 18 20 18 18 18 18 18 18 19 20 20 21 20 21 22 22 23 23 24 24 23 24 24 24 24 25 26 26 26 26 26 25 25 25 25 25 26 27 27 28 27
12 13 14 14 14 14 15 15 17 18 18 19 18 17 17 19 19 20 21 21 22 22 22 23 24 23 23 23 24 25 26 26 25 25 26 27 27 28 28 26 26 26 26 27 27 28 28 29 28
11 12 12 13 14 15 15 16 17 18 18 18 19 18 17 18 18 19 21 21 22 23 23 24 24 24 24 24 25 26 27 26 26 26 27 28 28 27 28 28 28 28 28 29 29 29 28 29 29
11 11 12 13 15 16 16 18 18 18 19 20 20 18 19 19 20 20 22 22 23 24 25 25 25 26 26 26 26 27 28 27 28 28 29 29 29 29 30 29 28 28 29 29 30 30 29 29 29
12 11 12 14 15 17 17 18 18 18 18 19 19 19 20 20 21 22 23 23 24 24 25 25 25 26 26 26 27 27 28 28 29 29 30 30 30 30 29 29 29 29 30 29 28 28 28 29 29
12 12 12 13 15 15 17 18 16 18 19 19 19 20 20 21 21 21 23 23 24 24 25 25 26 26 27 27 27 28 28 29 29 30 31 31 31 31 30 30 30 30 29 29 29 29 29 28 29
13 13 14 15 15 17 17 19 16 17 19 19 20 20 21 22 22 23 23 23 25 26 25 25 26 26 27 27 28 28 28 29 30 31 31 31 31 31 30 30 30 30 29 29 29 29 30 29 29
13 13 14 15 17 17 16 19 18 18 20 20 21 21 22 23 22 23 23 24 24 24 25 26 26 26 26 27 27 28 29 29 30 30 30 30 30 30 29 29 29 29 30 29 28 29 29 29 29
13 14 15 15 16 16 17 19 19 19 18 18 20 20 20 21 21 22 23 24 24 24 25 25 25 25 26 27 28 28 28 28 28 28 28 28 29 28 28 28 28 29 29 29 29 28 28 29 29
13 14 15 17 17 17 18 19 19 18 18 19 19 20 20 20 20 20 21 23 23 24 24 25 25 26 27 27 28 28 28 28 28 28 28 27 27 27 27 27 27 28 28 28 28 28 28 29 28
14 15 16 17 18 18 18 18 18 18 18 19 20 20 19 20 21 21 22 23 24 25 25 25 25 25 26 27 27 28 28 28 28 28 28 27 27 27 27 27 26 26 26 26 26 26 27 27 27
16 17 16 16 18 18 17 17 19 18 19 19 18 18 19 20 21 20 21 23 24 25 25 25 25 26 25 25 26 26 27 27 27 27 27 27 26 26 25 25 25 25 24 24 25 25 25 25 25
16 17 17 17 18 20 20 18 17 18 16 17 18 19 19 19 20 21 22 23 23 23 23 23 25 25 25 25 25 26 25 26 26 25 25 25 24 24 24 24 24 24 24 24 24 23 24 24 23
16 16 17 18 18 19 20 18 16 16 16 17 18 19 19 20 21 21 21 21 22 22 22 23 24 24 24 24 25 25 25 24 23 23 22 23 23 23 23 23 22 22 22 22 22 23 23 23 23
Wind_Direction
207 203 199 195 192 193 198 204 214 228 244 257 271 279 288 294 296 295 297 301 303 302 307 309 306 305 304 302 300 298 299 299 299 299 299 299 300 300 300 299 299 298 297 296 296 295 293 293 294
207 204 200 197 195 196 205 213 223 235 242 256 269 274 278 283 287 288 289 292 294 296 302 305 304 303 302 300 297 296 295 296 296 295 296 297 297 297 298 298 296 294 292 291 291 291 291 291 293
207 204 201 199 198 202 208 215 226 237 250 260 268 275 274 273 276 281 286 286 288 293 297 298 300 300 300 299 297 294 293 293 294 294 293 292 293 293 293 294 293 290 287 285 286 287 287 288 289
208 205 203 202 199 203 211 218 227 240 250 259 264 269 266 275 277 282 284 285 287 290 295 298 297 297 297 297 296 294 291 292 292 292 291 290 290 291 290 290 289 287 283 282 282 282 283 284 285
208 206 204 204 203 207 214 223 236 243 251 259 264 268 267 273 273 277 279 281 286 290 294 296 293 293 296 297 296 294 291 290 291 291 290 289 288 289 288 287 286 284 282 280 280 279 280 281 282
205 206 205 202 206 210 219 228 234 245 255 261 263 266 269 267 269 271 274 279 283 289 295 294 294 296 296 296 295 294 290 289 291 290 289 289 287 286 286 284 282 281 281 280 279 279 277 277 279
203 203 204 206 209 215 225 235 242 251 261 264 264 266 267 268 271 272 271 277 284 288 292 296 295 295 294 295 295 293 291 290 291 292 290 288 287 285 284 282 280 278 278 279 279 277 277 277 278
200 203 204 208 211 217 227 239 247 250 260 265 269 272 266 267 271 269 273 280 284 287 287 290 293 293 292 292 292 292 292 292 292 291 290 289 287 285 282 280 279 278 279 279 278 278 277 278 277
198 202 206 211 216 220 229 240 251 260 265 266 270 270 264 263 269 268 273 280 285 287 287 288 290 290 290 289 289 290 291 292 294 292 291 290 287 284 282 279 279 279 279 278 278 279 277 277 276
201 204 209 218 224 228 236 243 255 260 266 272 272 270 268 266 271 273 278 279 283 285 286 287 288 286 286 287 287 288 289 289 292 292 289 289 286 282 280 278 279 279 279 279 278 278 278 277 276
205 207 214 222 231 233 240 249 260 265 272 273 276 273 270 272 274 278 279 279 281 284 286 286 285 283 283 283 284 286 287 286 288 289 288 286 283 280 279 278 279 278 278 278 277 277 279 278 276
209 212 220 227 235 240 246 252 259 266 272 275 278 273 273 272 272 272 275 277 279 283 286 286 286 284 284 282 281 284 286 287 286 286 286 283 282 280 278 278 279 277 276 275 275 275 276 275 275
213 217 224 227 235 244 248 254 261 267 273 275 278 277 275 272 276 276 275 277 280 284 286 285 287 286 286 284 283 285 286 289 287 287 285 282 280 278 276 275 275 276 276 277 276 276 276 275 274
217 224 231 235 240 246 251 255 263 268 273 277 278 280 281 278 277 276 279 280 282 284 285 284 289 286 285 285 284 284 285 287 287 285 284 284 283 279 277 276 275 275 276 276 274 274 273 274 274
219 222 229 238 247 251 253 256 264 268 268 274 279 281 283 279 279 281 284 282 283 285 285 285 286 285 284 286 286 286 286 286 285 284 284 288 288 283 280 280 279 275 274 275 275 273 272 272 272
221 226 233 240 248 255 258 261 266 274 271 273 278 282 282 277 279 286 288 287 284 286 286 287 288 288 287 288 287 288 287 287 288 286 285 288 288 285 281 280 281 277 275 273 273 275 273 272 272
224 228 237 243 248 257 263 268 271 276 279 280 281 284 284 285 289 290 292 291 289 291 289 286 287 288 287 286 285 285 286 287 288 289 288 289 287 284 281 280 280 279 277 275 275 275 274 272 271
227 233 238 245 254 260 266 275 278 281 284 286 288 286 285 290 293 294 294 293 294 295 292 290 287 288 287 287 287 287 287 286 286 288 288 288 286 284 282 282 280 279 278 278 276 275 274 272 271
234 236 241 248 254 264 269 276 281 283 285 288 290 291 294 296 296 297 296 292 292 292 292 292 289 291 290 289 289 289 289 287 286 287 287 286 286 286 283 284 283 280 279 278 277 274 274 274 272
238 240 249 253 259 266 269 275 277 280 281 285 287 292 295 297 298 299 296 292 291 290 290 290 289 290 291 290 289 289 288 287 288 288 287 286 287 287 284 283 284 282 280 279 276 274 273 274 273
245 252 259 262 264 269 271 273 274 277 279 283 288 294 298 302 303 303 300 293 290 288 289 291 290 289 289 288 287 287 287 287 287 287 286 287 287 287 284 282 283 284 281 279 278 275 274 274 274
253 259 267 268 264 269 274 275 275 278 284 290 293 292 295 300 300 302 304 296 296 293 292 292 291 290 289 288 288 287 287 288 288 288 287 287 287 287 286 283 283 284 283 281 279 277 276 275 275
260 264 267 271 272 272 273 276 283 285 286 288 293 294 295 295 298 299 304 303 301 297 294 293 293 292 290 289 288 288 288 289 290 290 289 288 288 288 286 284 283 283 283 281 279 278 276 275 274
268 267 269 273 275 274 278 279 282 289 290 289 291 292 295 295 298 301 303 306 303 299 296 294 294 293 291 290 289 288 288 289 290 290 290 289 289 289 287 286 285 285 283 280 278 278 276 275 275
274 276 277 275 274 277 280 282 288 295 294 293 292 293 294 297 299 302 303 306 305 303 301 297 294 293 293 292 291 290 289 290 290 291 292 290 289 290 289 288 286 286 283 280 277 275 274 275 276
275 275 279 280 281 281 281 285 290 295 295 292 292 296 296 296 300 301 305 309 309 308 304 299 297 295 294 293 292 292 292 291 291 291 291 291 291 292 291 291 289 287 285 282 279 276 275 276 276
277 277 280 282 285 288 285 287 287 294 296 294 294 296 297 298 300 303 307 308 307 308 307 302 300 298 296 294 292 292 292 292 292 292 291 291 291 292 292 291 290 290 286 283 282 279 277 277 278
276 276 279 283 289 294 293 292 293 296 299 296 295 302 305 303 304 304 305 307 307 308 308 305 305 305 302 298 297 295 294 293 292 291 291 291 291 291 291 290 290 290 288 286 284 282 281 279 278
271 272 277 284 289 291 294 296 297 299 297 298 302 304 303 305 307 308 307 307 308 309 310 310 309 307 305 303 301 300 299 298 295 294 293 292 293 293 293 293 293 292 289 288 287 284 281 280 278
270 271 274 280 286 288 293 299 299 299 297 300 301 302 304 305 307 308 308 309 309 311 312 312 311 309 307 305 304 302 301 300 298 297 295 293 292 293 293 292 293 295 294 291 288 285 283 281 280
Height
5903 5905 5907 5909 5911 5911 5910 5911 5911 5912 5912 5912 5913 5913 5914 5915 5916 5917 5915 5913 5912 5911 5911 5910 5910 5909 5908 5907 5907 5906 5905 5904 5904 5903 5902 5901 5900 5899 5897 5896 5895 5894 5893 5892 5891 5890 5888 5887 5887
5901 5903 5906 5908 5909 5909 5909 5909 5910 5910 5911 5912 5913 5913 5913 5914 5914 5913 5913 5912 5911 5910 5910 5909 5908 5908 5907 5906 5905 5905 5904 5903 5902 5901 5900 5899 5898 5897 5896 5895 5893 5892 5891 5890 5889 5888 5887 5886 5885
5898 5900 5904 5905 5906 5907 5908 5908 5908 5909 5910 5911 5912 5912 5912 5912 5912 5912 5912 5910 5910 5909 5908 5907 5907 5906 5905 5904 5904 5903 5902 5901 5900 5899 5898 5897 5896 5895 5894 5893 5892 5890 5889 5888 5887 5886 5885 5884 5883
5896 5899 5902 5904 5904 5905 5905 5905 5905 5906 5907 5908 5910 5911 5910 5911 5911 5911 5909 5908 5908 5907 5906 5905 5905 5904 5903 5902 5902 5901 5900 5899 5898 5897 5896 5895 5894 5893 5892 5891 5889 5888 5887 5886 5885 5884 5883 5882 5881
5894 5897 5899 5901 5902 5903 5903 5903 5903 5903 5904 5906 5908 5908 5908 5909 5909 5908 5907 5906 5906 5905 5904 5903 5902 5901 5901 5900 5899 5898 5897 5896 5895 5894 5893 5892 5891 5890 5889 5888 5887 5886 5885 5884 5883 5882 5881 5880 5879
5892 5895 5897 5898 5899 5900 5900 5899 5900 5901 5902 5903 5904 5905 5906 5906 5907 5906 5905 5904 5903 5903 5902 5901 5900 5899 5899 5898 5897 5896 5895 5894 5893 5891 5890 5889 5888 5887 5886 5885 5884 5883 5882 5881 5880 5879 5878 5877 5876
5891 5893 5895 5896 5897 5897 5897 5898 5898 5899 5899 5901 5901 5901 5902 5903 5904 5903 5903 5902 5901 5900 5899 5897 5897 5897 5896 5895 5894 5893 5892 5891 5889 5888 5887 5886 5884 5883 5882 5881 5880 5880 5879 5878 5877 5876 5875 5874 5873
5887 5891 5892 5893 5894 5894 5895 5895 5895 5897 5897 5898 5899 5899 5899 5900 5900 5900 5900 5899 5898 5898 5897 5896 5895 5894 5893 5892 5891 5890 5888 5887 5886 5884 5883 5882 5881 5880 5878 5878 5877 5876 5875 5874 5873 5872 5871 5870 5869
5885 5889 5889 5890 5891 5892 5892 5892 5892 5893 5894 5894 5895 5895 5896 5897 5897 5897 5897 5896 5895 5894 5894 5893 5892 5890 5889 5888 5887 5886 5885 5884 5882 5881 5880 5878 5877 5876 5874 5874 5873 5872 5871 5870 5869 5868 5867 5866 5865
5882 5885 5887 5888 5888 5889 5889 5890 5891 5891 5891 5892 5892 5892 5893 5893 5894 5894 5893 5893 5892 5891 5890 5889 5888 5887 5886 5884 5883 5882 5881 5880 5878 5877 5876 5874 5873 5871 5870 5869 5868 5868 5867 5866 5865 5863 5862 5861 5861
5880 5882 5884 5885 5886 5886 5887 5887 5887 5888 5888 5888 5890 5889 5889 5889 5889 5889 5888 5889 5888 5887 5886 5885 5884 5882 5881 5880 5879 5878 5877 5876 5874 5873 5871 5870 5868 5867 5866 5865 5864 5863 5862 5861 5860 5858 5858 5857 5856
5878 5880 5881 5882 5883 5885 5885 5885 5885 5885 5886 5886 5886 5885 5885 5884 5884 5884 5884 5883 5884 5883 5883 5881 5880 5878 5877 5876 5875 5873 5872 5871 5869 5868 5866 5865 5863 5862 5861 5860 5859 5858 5857 5856 5855 5854 5853 5852 5851
5876 5877 5878 5880 5881 5882 5882 5882 5882 5883 5883 5882 5882 5881 5880 5880 5880 5880 5880 5880 5879 5879 5878 5877 5875 5873 5872 5870 5869 5868 5867 5866 5864 5862 5861 5860 5859 5857 5856 5855 5854 5853 5852 5851 5850 5849 5848 5847 5846
5874 5875 5876 5878 5879 5879 5879 5879 5879 5879 5879 5878 5878 5878 5878 5877 5877 5876 5876 5875 5874 5874 5873 5871 5870 5868 5867 5866 5865 5863 5861 5860 5858 5857 5856 5854 5853 5852 5850 5849 5848 5847 5846 5845 5844 5844 5842 5842 5841
5871 5873 5874 5875 5875 5875 5875 5876 5875 5875 5874 5874 5874 5874 5873 5872 5872 5872 5871 5870 5869 5868 5867 5865 5864 5863 5862 5861 5859 5857 5856 5855 5853 5852 5850 5849 5847 5845 5844 5843 5842 5841 5840 5839 5838 5837 5837 5836 5835
5869 5871 5872 5872 5872 5871 5872 5871 5871 5871 5869 5870 5870 5869 5868 5867 5867 5867 5866 5865 5864 5862 5861 5860 5859 5858 5856 5855 5854 5852 5851 5849 5848 5846 5845 5843 5841 5839 5838 5837 5836 5834 5833 5833 5832 5831 5830 5830 5829
5867 5868 5869 5869 5869 5869 5868 5867 5867 5866 5866 5866 5866 5865 5864 5863 5862 5862 5861 5860 5858 5857 5857 5856 5854 5853 5851 5850 5849 5847 5845 5843 5842 5841 5839 5836 5834 5832 5831 5830 5829 5828 5826 5826 5825 5824 5823 5822 5822
5865 5865 5866 5866 5866 5865 5865 5864 5864 5863 5863 5863 5862 5862 5861 5860 5859 5858 5857 5855 5854 5853 5852 5850 5849 5847 5845 5844 5842 5841 5839 5837 5836 5834 5833 5830 5828 5827 5825 5823 5822 5821 5819 5818 5817 5817 5815 5815 5814
5862 5862 5862 5863 5863 5862 5861 5861 5861 5860 5860 5859 5858 5857 5857 5856 5855 5853 5852 5851 5849 5848 5846 5845 5843 5841 5839 5838 5836 5834 5833 5831 5829 5828 5826 5824 5822 5820 5818 5816 5815 5813 5812 5811 5809 5808 5807 5807 5806
5859 5859 5859 5860 5859 5858 5858 5858 5857 5857 5856 5855 5854 5853 5853 5852 5850 5849 5847 5845 5844 5842 5840 5839 5837 5835 5833 5831 5830 5828 5826 5824 5823 5821 5819 5817 5815 5813 5811 5809 5807 5805 5804 5802 5801 5800 5799 5798 5797
5856 5856 5856 5856 5855 5855 5855 5854 5853 5853 5852 5851 5850 5849 5848 5847 5846 5845 5843 5840 5838 5836 5834 5832 5830 5829 5827 5825 5823 5821 5819 5817 5816 5813 5811 5809 5807 5804 5803 5801 5799 5797 5796 5794 5793 5792 5791 5790 5789
5853 5853 5853 5852 5851 5851 5852 5851 5850 5849 5848 5847 5846 5845 5843 5842 5841 5840 5837 5834 5831 5830 5828 5826 5824 5822 5820 5818 5816 5814 5812 5810 5808 5806 5803 5801 5799 5797 5794 5792 5790 5789 5787 5786 5785 5783 5782 5781 5780
5850 5850 5850 5849 5848 5848 5848 5847 5847 5845 5844 5843 5842 5840 5839 5837 5836 5834 5832 5830 5827 5824 5821 5819 5817 5815 5813 5811 5809 5807 5805 5803 5800 5798 5795 5793 5790 5788 5785 5784 5782 5780 5779 5777 5776 5775 5774 5772 5772
5848 5847 5847 5846 5845 5845 5844 5843 5843 5842 5840 5839 5837 5836 5834 5832 5831 5829 5827 5825 5821 5818 5816 5813 5811 5808 5806 5804 5802 5800 5798 5795 5793 5790 5787 5785 5783 5780 5778 5776 5774 5772 5770 5769 5768 5767 5765 5764 5763
5845 5844 5843 5842 5841 5841 5840 5838 5839 5837 5835 5834 5832 5830 5829 5827 5826 5824 5821 5819 5816 5813 5810 5807 5804 5802 5799 5797 5795 5792 5790 5788 5785 5782 5780 5777 5775 5772 5770 5768 5766 5764 5762 5760 5759 5758 5757 5756 5754
5841 5841 5840 5839 5837 5837 5836 5834 5835 5833 5831 5829 5827 5826 5824 5823 5821 5819 5816 5813 5810 5808 5805 5801 5798 5795 5793 5790 5787 5785 5782 5780 5777 5775 5772 5770 5767 5765 5763 5760 5758 5756 5754 5752 5751 5749 5748 5747 5746
5837 5837 5836 5835 5833 5832 5831 5830 5829 5828 5827 5825 5823 5822 5820 5818 5816 5813 5810 5808 5805 5802 5799 5795 5792 5789 5786 5783 5780 5778 5775 5772 5770 5767 5765 5762 5760 5758 5755 5753 5751 5748 5746 5744 5743 5741 5740 5739 5737
5834 5833 5832 5831 5829 5827 5827 5826 5825 5824 5822 5820 5819 5817 5815 5813 5811 5808 5806 5803 5800 5797 5793 5790 5785 5782 5779 5776 5774 5771 5768 5765 5762 5760 5758 5755 5753 5750 5748 5746 5743 5741 5739 5737 5735 5733 5732 5730 5729
5831 5830 5828 5827 5825 5824 5822 5824 5821 5819 5817 5816 5814 5813 5811 5809 5806 5804 5801 5798 5795 5791 5788 5784 5780 5777 5773 5770 5767 5764 5761 5758 5755 5753 5750 5748 5746 5743 5741 5739 5736 5734 5731 5729 5727 5726 5724 5723 5721
5826 5826 5825 5824 5822 5820 5818 5820 5817 5815 5813 5811 5810 5808 5806 5804 5801 5798 5795 5792 5789 5786 5782 5779 5775 5771 5768 5764 5761 5757 5754 5751 5749 5746 5744 5741 5739 5737 5734 5732 5729 5727 5724 5722 5720 5719 5717 5715 5714